Location: Indian Hills
(32.9760°N, 85.9450°W)
Time: 01:35:15
(UTC+00:00)

Okean 1 - Pass Details

Date: 09 December 2019
Orbit: 540 x 555 km, 82.5° (Epoch: 22 January)

Event Time Altitude Azimuth Distance (km) Brightness Sun altitude
Rises 11:17:51 0° 357° (N) 2,700 6.6 -15.8°
Reaches altitude 10° 11:20:02 10° 0° (N) 1,805 5.8 -15.4°
Maximum altitude 11:23:58 65° 83° (E) 597 3.7 -14.6°
Drops below altitude 10° 11:27:53 10° 165° (SSE) 1,798 6.4 -13.8°
Sets 11:30:03 0° 169° (SSE) 2,688 7.3 -13.4°
